CAPE
594 612 430 36 0 0 0 0 0 0 0 0 0 0 0 0 0 0 3 0 0 0 0 0 0 0 0 0 0 0 52 267 294 349 375 277 393 285 159 122 139 163 38
224 336 407 494 257 5 0 0 0 0 0 0 0 0 0 0 0 0 0 0 0 0 0 0 0 0 1 0 0 0 0 0 3 19 132 246 269 269 381 325 379 381 371
0 0 26 63 145 184 25 0 0 0 0 0 0 0 0 0 0 0 0 0 0 0 0 0 0 0 0 0 0 0 0 0 0 0 0 0 0 85 141 169 234 282 197
0 0 0 0 2 3 13 0 0 0 0 0 0 0 0 0 0 0 0 0 0 0 0 0 0 0 0 0 0 0 0 0 0 0 0 0 0 0 0 0 2 33 84
0 0 0 0 3 7 1 1 3 0 0 0 0 0 0 0 0 0 0 0 0 0 0 0 0 0 0 0 0 0 0 0 0 0 0 0 0 0 0 0 0 0 0
0 0 0 0 0 0 3 4 0 0 2 0 0 0 0 0 0 0 0 0 0 0 0 0 0 0 0 0 0 0 0 0 0 0 0 0 0 0 0 0 0 0 0
0 0 0 0 0 0 0 0 2 5 0 3 0 0 0 0 0 0 0 0 0 0 0 0 0 0 0 0 0 0 0 0 0 0 0 0 0 0 0 0 0 0 0
0 0 0 0 0 0 0 0 0 1 2 0 1 0 0 0 0 0 0 0 0 0 0 0 0 0 0 0 0 0 0 0 0 0 0 0 0 0 0 0 0 0 0
0 0 0 0 0 0 0 0 0 0 0 0 0 0 0 0 0 0 0 0 0 0 0 0 0 0 0 0 0 0 0 0 0 0 0 0 0 0 0 0 0 0 0
0 0 0 0 0 0 0 0 0 0 0 1 4 0 0 0 0 0 0 0 0 0 0 0 0 0 0 0 0 0 0 0 0 0 0 0 0 0 0 0 0 0 0
0 0 0 0 0 0 0 0 0 0 0 0 2 6 7 0 0 0 0 0 0 0 0 0 0 0 0 0 0 0 0 0 0 0 0 0 0 0 0 0 0 1 0
0 0 0 0 0 0 0 0 0 0 0 0 0 6 9 4 0 0 0 0 0 0 0 0 0 0 0 0 0 0 0 0 0 0 0 0 0 0 0 0 0 1 0
0 0 0 0 0 0 1 0 0 0 0 0 0 0 3 12 6 2 0 0 0 0 0 0 0 0 0 0 0 0 0 0 0 0 0 0 0 0 0 0 0 1 2
0 0 0 0 0 0 0 1 0 0 4 0 0 0 0 2 26 7 0 0 0 0 0 0 0 0 0 0 0 0 0 0 0 0 0 0 0 0 0 0 0 0 1
0 0 0 0 2 1 0 1 3 2 0 0 3 15 3 4 4 27 22 0 0 0 0 0 0 0 0 0 0 0 0 0 0 0 0 0 0 0 0 0 0 0 0
0 0 1 0 0 5 6 7 6 16 2 0 19 76 18 11 18 33 54 37 0 0 0 0 0 0 0 0 0 0 0 0 0 0 0 0 0 0 0 0 0 0 0
0 2 3 1 4 7 10 9 15 22 18 3 25 78 49 23 30 36 47 91 50 4 0 0 0 0 0 0 0 0 0 0 0 0 0 0 0 0 0 0 0 0 0
0 0 2 7 19 15 13 14 20 21 25 20 37 78 80 24 38 74 42 43 88 36 16 0 0 0 0 0 0 0 0 0 0 0 0 0 0 0 0 0 0 0 0
2 1 0 0 1 2 12 26 24 12 25 35 32 49 64 67 101 135 75 55 84 99 44 20 0 0 0 0 0 0 0 0 0 0 0 0 0 0 0 0 0 0 0
1 1 3 1 2 10 10 23 36 20 36 50 25 39 36 52 124 138 84 58 44 59 35 20 2 1 0 0 0 0 0 0 0 0 0 0 0 0 0 0 0 0 0
13 2 0 6 6 6 8 14 34 30 18 25 52 126 114 131 173 121 82 55 68 59 53 39 6 2 1 0 0 0 0 0 0 0 0 0 0 0 0 0 0 0 0
19 12 3 5 7 8 9 20 16 26 0 22 48 22 133 204 127 64 43 24 24 25 64 32 13 3 5 0 0 0 0 0 0 0 0 0 0 0 0 0 0 0 0
18 3 5 8 5 2 4 21 38 24 37 31 2 0 68 76 96 42 15 14 25 33 19 40 17 2 2 0 0 0 0 0 0 0 0 0 0 0 0 0 0 0 0
4 11 1 4 4 0 8 20 32 40 28 8 17 26 46 41 59 27 10 9 6 11 24 31 34 18 5 4 1 0 0 0 0 0 0 0 0 0 0 0 0 0 0
7 3 6 4 8 5 11 18 10 17 12 5 12 20 19 29 22 16 5 6 0 1 0 2 32 54 57 19 0 0 0 0 0 0 0 0 0 0 0 0 0 0 0
5 6 5 13 4 7 6 6 15 23 9 6 14 17 36 19 6 5 0 3 4 0 9 1 8 59 73 16 2 0 0 0 0 0 0 0 0 0 0 0 0 0 0
CIN
-10 -11 -9 -80 -0 -0 -0 -0 -0 -0 -0 -0 -0 -0 -0 -0 -0 -0 -0 -0 -0 -0 -0 -0 -0 -0 -0 -0 -0 -0 -153 -48 -24 -15 -15 -23 -8 -29 -80 -117 -114 -98 -249
-36 -29 -18 -6 -36 -9 -0 -0 -0 -0 -0 -0 -0 -0 -0 -0 -0 -0 -0 -0 -0 -0 -0 -0 -0 -0 -0 -0 -0 -0 -0 -12 -64 -112 -92 -34 -26 -34 -5 -14 -16 -22 -31
-0 -0 -77 -95 -42 -41 -14 -0 -0 -0 -0 -0 -0 -0 -0 -0 -0 -0 -0 -0 -0 -0 -0 -0 -0 -0 -0 -0 -0 -0 -0 -0 -0 -0 -0 -0 -6 -117 -80 -70 -54 -47 -77
-0 -0 -0 -0 -0 -0 -44 -0 -0 -0 -0 -0 -0 -0 -0 -0 -0 -0 -0 -0 -0 -0 -0 -0 -0 -0 -0 -0 -0 -0 -0 -0 -0 -0 -0 -0 -0 -0 -14 -7 -36 -140 -125
-0 -0 -0 -0 -0 -1 -0 -0 -60 -0 -0 -0 -0 -0 -0 -0 -0 -0 -0 -0 -0 -0 -0 -0 -0 -0 -0 -0 -0 -0 -0 -0 -0 -0 -0 -0 -0 -0 -0 -0 -0 -0 -0
-0 -0 -0 -0 -0 -0 -3 -1 -0 -0 -1 -0 -0 -0 -0 -0 -0 -0 -0 -0 -0 -0 -0 -0 -0 -0 -0 -0 -0 -0 -0 -0 -0 -0 -0 -0 -0 -0 -0 -0 -0 -0 -0
-0 -0 -0 -0 -0 -0 -0 -0 -0 -0 -0 -3 -0 -0 -0 -0 -0 -0 -0 -0 -0 -0 -0 -0 -0 -0 -0 -0 -0 -0 -0 -0 -0 -0 -0 -0 -0 -0 -0 -0 -0 -0 -0
-0 -0 -0 -0 -0 -0 -0 -0 -0 -0 -1 -0 -0 -0 -0 -0 -0 -0 -0 -0 -0 -0 -0 -0 -0 -0 -0 -0 -0 -0 -0 -0 -0 -0 -0 -0 -0 -0 -0 -0 -0 -0 -0
-0 -0 -0 -0 -0 -0 -0 -0 -0 -0 -0 -0 -0 -0 -0 -0 -0 -0 -0 -0 -0 -0 -0 -0 -0 -0 -0 -0 -0 -0 -0 -0 -0 -0 -0 -0 -0 -0 -0 -0 -0 -0 -0
-0 -0 -0 -0 -0 -0 -0 -0 -0 -0 -0 -0 -1 -0 -0 -0 -0 -0 -0 -0 -0 -0 -0 -0 -0 -0 -0 -0 -0 -0 -0 -0 -0 -0 -0 -0 -0 -0 -0 -0 -0 -0 -0
-0 -0 -0 -0 -0 -0 -0 -0 -0 -0 -0 -0 -0 -2 -1 -0 -0 -0 -0 -0 -0 -0 -0 -0 -0 -0 -0 -0 -0 -0 -0 -0 -0 -0 -0 -0 -0 -0 -0 -0 -0 -0 -0
-0 -0 -0 -0 -0 -0 -0 -0 -0 -0 -0 -0 -0 -0 -3 -1 -0 -0 -0 -0 -0 -0 -0 -0 -0 -0 -0 -0 -0 -0 -0 -0 -0 -0 -0 -0 -0 -0 -0 -0 -0 -0 -0
-0 -0 -0 -0 -0 -0 -1 -0 -0 -0 -0 -0 -0 -0 -0 -1 -1 -1 -0 -0 -0 -0 -0 -0 -0 -0 -0 -0 -0 -0 -0 -0 -0 -0 -0 -0 -0 -0 -0 -0 -0 -0 -0
-0 -0 -0 -0 -0 -0 -0 -1 -0 -0 -0 -0 -0 -0 -0 -1 -1 -1 -0 -0 -0 -0 -0 -0 -0 -0 -0 -0 -0 -0 -0 -0 -0 -0 -0 -0 -0 -0 -0 -0 -0 -0 -0
-0 -0 -0 -0 -0 -1 -0 -0 -1 -0 -0 -0 -0 -0 -1 -0 -0 -0 -4 -0 -0 -0 -0 -0 -0 -0 -0 -0 -0 -0 -0 -0 -0 -0 -0 -0 -0 -0 -0 -0 -0 -0 -0
-0 -0 -0 -1 -0 -0 -0 -0 -0 -0 -1 -0 -0 -0 -1 -0 -0 -0 -1 -3 -0 -0 -0 -0 -0 -0 -0 -0 -0 -0 -0 -0 -0 -0 -0 -0 -0 -0 -0 -0 -0 -0 -0
-0 -0 -0 -0 -0 -0 -0 -0 -0 -0 -0 -0 -0 -0 -0 -1 -1 -2 -1 -0 -3 -5 -0 -0 -0 -0 -0 -0 -0 -0 -0 -0 -0 -0 -0 -0 -0 -0 -0 -0 -0 -0 -0
-0 -1 -0 -0 -0 -0 -1 -2 -0 -0 -0 -0 -1 -0 -0 -3 -4 -0 -2 -4 -2 -3 -2 -0 -1 -0 -0 -0 -0 -0 -0 -0 -0 -0 -0 -0 -0 -0 -0 -0 -0 -0 -0
-2 -2 -2 -0 -5 -8 -0 -0 -0 -3 -0 -4 -0 -0 -0 -0 -1 -1 -0 -2 -1 -1 -4 -1 -0 -0 -0 -0 -0 -0 -0 -0 -0 -0 -0 -0 -0 -0 -0 -0 -0 -0 -0
-4 -3 -2 -3 -5 -0 -0 -0 -2 -10 -0 -1 -9 -0 -4 -1 -0 -2 -0 -3 -10 -4 -2 -3 -1 -0 -0 -0 -0 -0 -0 -0 -0 -0 -0 -0 -0 -0 -0 -0 -0 -0 -0
-0 -4 -2 -0 -1 -1 -0 -0 -0 -4 -24 -6 -2 -0 -0 -7 -2 -1 -1 -10 -8 -10 -15 -6 -7 -0 -0 -0 -0 -0 -0 -0 -0 -0 -0 -0 -0 -0 -0 -0 -0 -0 -0
-0 -0 -0 -0 -0 -0 -3 -2 -2 -5 -6 -9 -23 -50 -0 -1 -1 -9 -19 -37 -43 -38 -14 -11 -11 -1 -0 -0 -0 -0 -0 -0 -0 -0 -0 -0 -0 -0 -0 -0 -0 -0 -0
-0 -0 -0 -0 -0 -0 -4 -2 -1 -1 -1 -1 -21 -0 -0 -1 -3 -8 -36 -52 -74 -68 -58 -21 -2 -2 -1 -0 -0 -0 -0 -0 -0 -0 -0 -0 -0 -0 -0 -0 -0 -0 -0
-0 -0 -0 -0 -0 -0 -1 -2 -1 -1 -0 -7 -9 -2 -0 -10 -6 -16 -1 -1 -1 -43 -55 -31 -1 -4 -3 -25 -21 -0 -0 -0 -0 -0 -0 -0 -0 -0 -0 -0 -0 -0 -0
-0 -2 -0 -0 -0 -1 -1 -1 -1 -1 -1 -2 -2 -1 -4 -4 -8 -5 -3 -2 -0 -2 -0 -18 -16 -1 -3 -25 -0 -0 -0 -0 -0 -0 -0 -0 -0 -0 -0 -0 -0 -0 -0
-0 -0 -1 -0 -2 -1 -1 -1 -1 -0 -0 -2 -0 -0 -0 -4 -4 -3 -0 -1 -2 -0 -5 -6 -7 -2 -0 -24 -0 -0 -0 -0 -0 -0 -0 -0 -0 -0 -0 -0 -0 -0 -0
Wind_Speed
26 28 22 19 19 19 20 20 18 19 19 19 20 21 21 20 20 19 18 15 16 15 14 15 15 14 14 13 13 13 12 11 12 13 5 6 7 9 10 11 12 12 12
27 28 27 27 25 23 23 22 22 22 22 21 22 22 23 23 23 22 21 18 18 18 17 15 15 15 14 13 13 12 13 12 12 12 11 10 10 9 11 13 14 16 12
28 28 28 27 28 31 31 28 25 26 25 25 25 24 23 24 23 23 23 23 20 19 19 18 17 16 15 14 14 14 13 13 13 12 12 11 12 12 12 12 14 17 16
29 29 28 29 30 29 30 30 30 29 28 27 27 26 26 25 25 24 24 23 24 22 19 20 19 18 17 15 14 15 14 13 14 13 13 12 12 13 13 13 14 15 15
31 31 31 30 28 29 31 32 32 31 32 30 30 30 28 28 27 26 26 25 25 25 24 20 20 20 18 17 16 15 15 14 14 14 13 14 14 14 14 14 15 16 15
32 33 33 32 32 32 30 31 35 36 35 34 33 32 30 29 28 28 27 26 25 25 26 24 21 22 21 19 18 17 15 15 15 15 14 14 14 14 15 15 16 16 17
36 36 35 34 33 34 34 34 34 36 39 36 37 39 36 33 30 28 28 28 26 25 25 26 24 23 21 21 20 19 17 16 15 15 15 14 14 14 15 14 15 16 17
36 37 36 35 35 36 37 37 36 37 38 37 39 40 44 40 34 31 28 28 28 25 25 26 25 25 24 21 21 20 19 18 16 16 16 15 14 14 15 14 15 15 15
37 37 37 36 36 36 37 37 37 38 40 37 37 36 39 43 38 32 33 30 29 27 26 26 27 26 25 25 21 21 21 20 18 16 16 16 16 15 14 15 15 15 16
39 38 39 38 38 38 39 39 38 38 38 41 37 38 41 39 38 42 30 31 28 31 28 26 27 28 27 25 24 22 21 21 21 20 18 17 17 16 15 15 15 16 16
39 40 39 39 40 40 40 40 40 40 39 40 38 38 39 42 42 43 46 39 33 34 30 28 27 28 28 26 25 24 22 21 21 21 20 19 19 19 18 16 16 16 17
39 39 38 38 38 38 39 40 40 40 40 40 40 38 37 40 42 43 49 45 41 32 29 28 29 27 26 26 26 24 22 22 21 22 22 21 20 20 20 19 18 17 17
40 39 39 39 38 39 39 40 42 42 41 42 41 41 40 39 38 38 40 45 48 43 40 32 29 30 28 26 27 26 24 22 23 23 22 23 22 21 21 21 20 19 18
41 41 41 41 40 41 40 40 40 39 37 38 40 41 41 42 39 38 43 42 45 47 52 39 30 31 33 30 29 25 26 24 24 24 24 23 23 23 22 22 22 22 21
41 42 40 39 39 38 39 40 39 37 37 36 36 35 37 38 40 40 37 40 45 50 49 47 40 31 31 32 32 27 27 26 25 25 25 24 24 24 24 24 23 23 24
43 42 39 39 39 39 39 40 38 35 35 36 35 34 34 34 35 38 39 37 40 45 50 41 44 37 34 32 32 31 27 27 25 26 26 25 24 24 24 25 24 24 24
43 41 41 41 40 37 37 39 36 34 34 34 34 35 35 34 34 36 37 38 38 39 48 44 41 42 34 32 32 29 29 25 25 24 26 26 25 25 25 24 24 25 26
42 42 42 42 40 38 37 36 35 34 34 34 33 35 34 33 35 35 37 40 39 37 40 45 44 42 43 39 32 30 30 29 26 24 26 27 26 25 24 25 25 26 26
44 44 44 43 41 39 39 37 36 35 33 35 34 34 33 32 35 34 36 37 38 39 36 40 42 39 40 40 38 34 32 33 28 26 23 26 26 26 26 27 27 27 27
45 44 43 42 40 39 39 38 35 37 36 33 32 31 33 36 36 35 37 39 37 39 37 38 39 40 39 42 41 40 37 35 32 28 25 25 27 28 28 27 28 28 28
45 44 44 41 40 39 37 34 34 33 34 35 34 32 31 37 38 34 35 37 37 39 37 37 39 40 42 39 44 40 39 36 35 32 29 28 27 28 30 30 30 30 30
46 42 41 38 38 36 35 36 35 31 35 31 36 43 37 31 35 38 41 41 41 40 38 36 37 42 42 40 39 39 41 39 40 34 32 32 28 30 29 29 28 29 30
43 37 36 34 35 32 34 32 29 28 30 32 42 50 38 32 34 33 35 38 40 42 45 41 38 40 41 39 38 38 39 40 40 35 33 36 31 33 29 29 28 28 27
36 32 29 26 30 31 29 28 27 31 38 46 48 44 34 35 38 32 33 37 37 36 39 44 45 39 38 39 39 38 39 37 38 37 31 35 31 34 31 30 30 28 27
33 31 27 29 26 27 25 25 33 39 42 44 41 43 41 37 40 37 37 39 39 40 41 44 43 44 42 38 37 36 38 38 40 37 33 32 33 33 33 33 30 29 27
25 22 15 13 16 18 22 31 40 33 39 39 36 30 47 42 40 39 39 39 40 39 38 40 42 39 41 38 39 38 37 40 39 40 35 32 32 31 34 33 32 30 28
Wind_Direction
321 318 325 327 325 323 320 317 315 310 306 303 301 299 299 299 299 301 305 306 306 305 308 313 316 317 319 321 322 323 326 327 325 321 350 344 344 333 324 323 326 329 333
319 317 316 315 316 317 314 313 310 309 306 303 299 296 295 293 293 293 294 299 300 297 299 302 306 309 311 313 315 315 318 311 314 318 322 321 324 326 318 311 310 307 319
318 315 311 310 308 310 309 306 304 305 303 301 298 296 293 291 289 288 288 289 293 292 291 293 296 299 301 303 306 305 306 307 305 306 309 311 313 314 315 314 309 306 308
328 322 316 310 307 304 302 300 302 299 297 298 297 294 292 289 287 285 285 285 286 288 287 286 288 291 292 293 297 299 298 298 299 301 300 302 306 306 307 307 305 308 310
326 323 321 318 315 310 303 298 295 294 294 292 292 291 290 288 286 284 282 280 281 282 284 283 282 284 285 285 287 291 292 291 292 293 295 296 296 299 301 300 300 300 303
323 320 318 316 315 312 308 304 295 291 290 289 289 288 287 285 284 282 281 279 277 277 278 281 280 280 279 280 280 282 285 285 286 288 290 293 293 294 295 295 297 297 297
320 317 314 313 312 310 307 304 301 296 290 289 285 284 284 283 279 279 279 278 276 273 274 274 276 278 276 275 275 276 277 279 280 282 284 288 291 293 295 295 296 297 297
322 319 317 314 311 308 304 302 299 296 294 288 286 283 280 280 275 275 274 275 274 273 272 271 270 272 274 273 272 271 273 273 275 276 278 282 286 289 292 294 296 297 299
318 317 315 313 311 309 305 303 300 296 292 290 284 282 281 276 281 274 271 269 271 272 271 270 269 268 269 271 271 268 268 270 269 270 273 276 281 284 288 291 293 295 296
315 314 311 309 308 306 303 301 300 297 294 289 287 280 274 279 282 275 279 274 267 269 269 269 269 267 266 266 268 268 266 265 267 267 268 270 275 279 283 288 290 293 295
312 312 310 307 305 304 303 301 299 296 294 291 288 284 279 274 272 271 274 275 273 268 266 267 269 269 264 264 265 266 265 262 261 263 266 268 271 274 278 283 287 289 293
313 311 309 307 305 303 302 302 299 295 292 289 287 286 280 277 274 270 266 265 272 270 269 267 266 267 267 263 263 264 262 261 259 260 262 264 268 271 274 279 282 286 289
314 312 311 307 304 303 300 299 298 293 291 287 284 282 282 278 276 273 269 266 265 268 272 264 264 264 266 266 264 262 260 259 259 259 260 262 265 269 272 275 278 281 285
313 312 309 306 304 302 301 299 297 294 290 288 283 281 280 278 277 272 269 267 266 266 262 264 262 262 262 264 265 262 261 258 257 258 259 261 263 266 269 272 275 277 280
313 311 309 307 305 302 301 298 295 292 292 289 285 282 280 279 275 274 269 267 265 263 264 261 263 261 263 263 263 264 262 259 257 256 258 260 262 265 267 270 273 275 277
313 311 308 307 304 302 300 297 291 289 289 288 285 281 281 280 278 274 271 266 266 263 262 262 260 264 260 262 261 260 264 263 257 255 256 258 261 264 266 269 271 274 276
314 310 308 305 302 299 299 297 290 287 287 287 284 280 278 278 277 275 273 270 265 264 262 262 261 261 265 259 262 260 261 263 262 256 256 258 260 263 266 267 270 273 275
315 312 309 306 303 300 299 296 290 286 286 286 283 279 277 278 276 273 270 269 267 263 262 261 261 261 258 265 258 257 259 262 262 260 258 257 259 262 264 267 270 272 275
316 313 309 305 303 300 298 294 290 287 285 285 283 280 279 276 272 270 268 267 266 265 263 263 262 262 261 259 256 257 256 260 262 264 259 258 258 261 265 268 270 272 274
315 311 308 305 302 299 296 292 288 286 286 283 280 281 277 273 268 268 267 265 267 265 263 261 262 262 261 257 255 253 255 257 258 262 260 260 261 263 265 268 271 273 274
315 312 307 305 302 298 295 290 287 282 282 280 283 278 273 269 267 268 267 266 265 264 263 261 260 262 259 258 252 252 253 253 256 257 259 260 262 264 266 268 272 273 274
316 312 310 305 305 299 295 289 285 282 282 278 275 270 270 268 266 267 266 265 264 263 265 261 260 260 259 258 254 250 250 251 252 253 256 260 261 263 267 269 272 274 275
320 313 310 306 306 301 296 290 282 281 278 278 262 238 256 271 265 266 266 264 263 260 258 261 261 259 259 258 255 249 249 249 252 256 252 258 259 262 268 271 273 275 276
325 322 316 309 308 303 299 292 286 279 274 261 252 259 272 267 262 267 267 263 263 263 259 254 254 259 259 259 255 251 248 251 252 255 250 257 259 262 267 271 274 276 277
328 326 320 318 313 310 304 296 282 269 264 255 262 257 260 263 256 262 263 260 262 260 260 254 254 253 255 257 256 253 248 245 247 250 250 256 260 263 267 269 274 276 277
330 327 313 299 253 244 235 235 246 276 264 262 264 267 243 254 255 257 258 261 261 264 263 259 258 259 253 255 253 250 247 243 245 248 251 254 260 264 267 269 273 277 279